Orbital Elements at Epoch 2459200.5 (2020-Dec-17.0) TDB
Reference: JPL 35 (heliocentric ecliptic J2000)
Element | Value | Uncertainty (1-sigma) | Units |
e | .07214826991693628 | 4.1423e-08 | |
a | 3.187669782300181 | 1.6731e-08 | au |
q | 2.957684922440726 | 1.3106e-07 | au |
i | 3.932162121821728 | 4.0584e-06 | deg |
node | 81.53944980293673 | 5.5771e-05 | deg |
peri | 347.7355704186984 | 6.2278e-05 | deg |
M | 200.7521968594876 | 2.9936e-05 | deg |
tp | 2460120.058502307682 (2023-Jun-24.55850231) | 0.00017706 | TDB |
period | 2078.779451284934 5.69 | 1.6367e-05 4.481e-08 | d yr |
n | .1731785446394888 | 1.3635e-09 | deg/d |
Q | 3.417654642159635 | 1.7939e-08 | au |
|
| | Orbit Determination Parameters
Additional Information
|